Regional Weather Roundup
Issued by NWS

Home | Current Version | Previous Version | Text Only | Print | Product List | Glossary On
Versions: 1 2 3 4 5 6 7 8 9 10 11 12 13 14 15 16 17 18 19 20 21 22 23 24 25 26 27
000
ASUS44 KLIX 271311
RWRLA
LOUISIANA WEATHER ROUNDUP
NATIONAL WEATHER SERVICE NEW ORLEANS LA
800 AM CDT WED JUL 27 2016

NOTE: "FAIR" INDICATES FEW OR NO CLOUDS BELOW 12,000 FEET WITH NO
      SIGNIFICANT WEATHER AND/OR OBSTRUCTIONS TO VISIBILITY.
      SKY/WX - SKY CONDITION AND SIGNIFICANT WEATHER.
      TMP - AIR TEMPERATURE.    DP   - DEWPOINT TEMPERATURE.
      RH  - RELATIVE HUMIDITY.  PRES - PRESSURE.
      HX  - HEAT INDEX.         WCI  - WIND CHILL INDEX.

*  THESE STATIONS ARE NOT NWS OR FAA STATIONS AND ARE NOT UNDER
   NWS QUALITY CONTROL.

LAZ040-048-061>063-065-066-069-271400-
SOUTHEAST LOUISIANA

CITY           SKY/WX    TMP DP  RH WIND       PRES   REMARKS
N.O. AUDUBON     N/A     76  72  89 MISG        N/A
N.O. INTL ARPT CLOUDY    77  72  84 W14       30.02F
N.O. LAKEFRONT LGT RAIN  77  72  84 W17       30.02F
N.O. DOWNTOWN* PTSUNNY   75  72  90 S6        30.05S
RESERVE*       RAIN      76  74  92 W3        30.04S
SLIDELL        LGT RAIN  73  69  87 SW10G26   30.05R
BATON ROUGE    LGT RAIN  75  72  90 SW15G22   30.02R
BOOTHVILLE     MOSUNNY   83  77  82 S8        30.04R
BELLE CHASSE   CLOUDY    76  32  20 S3        30.04S
BOGALUSA*      CLOUDY    78  73  83 S5        30.03S
GALLIANO*      MOSUNNY   77  75  94 NW5       30.03S
NEW ROADS*     CLOUDY    74  72  93 S8        30.01R
GONZALES*      RAIN      74  73  94 CALM      30.02S
HAMMOND*       CLOUDY    77  72  83 W7        30.02R
HOUMA*         PTSUNNY   73  73 100 CALM      30.04R
PORT FOURCHON* SUNNY     86  75  70 SW8       30.03R HX  95

$$

LAZ041-044-053-054-271400-
SOUTHWEST LOUISIANA

CITY           SKY/WX    TMP DP  RH WIND       PRES   REMARKS
LAKE CHARLES   LGT RAIN  74  72  93 S10       30.00R
LAFAYETTE      CLOUDY    75  74  96 S7        30.02R
PATTERSON      LGT RAIN  75  72  90 CALM      30.03R
SALT POINT       N/A     80  75  84 CALM      30.00R
NEW IBERIA     LGT RAIN  75  73  93 CALM      30.03R
CHENAULT AIRPK TSTM      73  72  94 S13G21    30.01R FOG

$$

LAZ027-028-271400-
CENTRAL LOUISIANA

CITY           SKY/WX    TMP DP  RH WIND       PRES   REMARKS
FORT POLK      CLOUDY    77  75  93 SW3       29.98R
ALEXANDRIA INT CLOUDY    75  75 100 S3        29.97R FOG
ALEXANDRIA     CLOUDY    76  76 100 SW3       29.98R

$$

LAZ001-002-271400-
NORTHWEST LOUISIANA

CITY           SKY/WX    TMP DP  RH WIND       PRES   REMARKS
SHREVEPORT     MOSUNNY   79  76  90 CALM      29.95S
BARKSDALE AFB  MOSUNNY   80  75  86 W6        29.94F
DTN SHREVEPORT SUNNY     80  75  84 VRB3      29.95S

$$

LAZ014-016-271400-
NORTHEAST LOUISIANA

CITY           SKY/WX    TMP DP  RH WIND       PRES   REMARKS
MONROE         CLOUDY    77  76  96 S3        29.98R
TALLULAH       CLOUDY    78  75  90 CALM      29.97R

$$





USA.gov is the U.S. government's official web portal to all federal, state and local government web resources and services.